Location: Peebles
(55.6412°N, 3.1714°W)
Time: 11:07:39
(UTC+01:00)

NOAA 16 DEB - Pass Details

Date: 06 July 2022
Orbit: 830 x 847 km, 98.8° (Epoch: 13 August)

Event Time Altitude Azimuth Distance (km) Brightness Sun altitude
Rises 00:54:29 0° 231° (SW) 3,371 ? -11.5°
Reaches altitude 10° 00:59:29 10° 272° (W) 2,448 ? -11.6°
Maximum altitude 01:00:19 10° 281° (W) 2,426 ? -11.6°
Drops below altitude 10° 01:01:11 10° 290° (WNW) 2,452 ? -11.6°
Sets 01:06:14 0° 331° (NNW) 3,399 ? -11.6°
